| time (UTC) | temp F | wind direction | speed MPH | gust MPH | rain 1hr in | rain 24hr in | rain mn in | humidity % | barometer mb |
| 20260507215605 | 83 | 282 | 0.0 | 5.0 | 0.00 | 0.00 | 0.00 | 34 | 1014.1 |
| 20260507215106 | 84 | 262 | 1.0 | 6.0 | 0.00 | 0.00 | 0.00 | 35 | 1014.2 |
| 20260507215020 | 83 | 310 | 1.0 | 5.0 | 0.00 | 0.00 | 0.00 | 38 | 1014.3 |
| 20260507214604 | 83 | 310 | 1.0 | 5.0 | 0.00 | 0.00 | 0.00 | 38 | 1014.3 |
| 20260507214106 | 83 | 306 | 2.0 | 8.0 | 0.00 | 0.00 | 0.00 | 36 | 1014.4 |
| 20260507213604 | 83 | 342 | 0.0 | 5.0 | 0.00 | 0.00 | 0.00 | 36 | 1014.4 |
| 20260507213105 | 83 | 312 | 1.0 | 3.0 | 0.00 | 0.00 | 0.00 | 40 | 1014.4 |
| 20260507213023 | 83 | 282 | 1.0 | 3.0 | 0.00 | 0.00 | 0.00 | 40 | 1014.4 |
| 20260507212604 | 83 | 282 | 1.0 | 3.0 | 0.00 | 0.00 | 0.00 | 40 | 1014.4 |
| 20260507212106 | 82 | 74 | 0.0 | 3.0 | 0.00 | 0.00 | 0.00 | 37 | 1014.4 |
| 20260507212021 | 83 | 48 | 2.0 | 8.0 | 0.00 | 0.00 | 0.00 | 35 | 1014.5 |
| 20260507211604 | 83 | 48 | 2.0 | 8.0 | 0.00 | 0.00 | 0.00 | 35 | 1014.5 |
| 20260507211104 | 82 | 22 | 4.0 | 9.0 | 0.00 | 0.00 | 0.00 | 35 | 1014.4 |
| 20260507210604 | 82 | 27 | 1.0 | 3.0 | 0.00 | 0.00 | 0.00 | 38 | 1014.5 |
| 20260507210104 | 81 | 19 | 0.0 | 2.0 | 0.00 | 0.00 | 0.00 | 35 | 1014.6 |
| 20260507210023 | 82 | 19 | 3.0 | 7.0 | 0.00 | 0.00 | 0.00 | 34 | 1014.7 |
| 20260507205604 | 82 | 19 | 3.0 | 7.0 | 0.00 | 0.00 | 0.00 | 34 | 1014.7 |
| 20260507205020 | 81 | 359 | 0.0 | 3.0 | 0.00 | 0.00 | 0.00 | 40 | 1014.7 |
| 20260507204604 | 81 | 359 | 0.0 | 3.0 | 0.00 | 0.00 | 0.00 | 40 | 1014.7 |
| 20260507204104 | 82 | 0 | 1.0 | 3.0 | 0.00 | 0.00 | 0.00 | 36 | 1014.9 |
| 20260507204021 | 81 | 68 | 3.0 | 5.0 | 0.00 | 0.00 | 0.00 | 35 | 1014.9 |
| 20260507203606 | 81 | 68 | 3.0 | 5.0 | 0.00 | 0.00 | 0.00 | 35 | 1014.9 |
| 20260507203104 | 79 | 1 | 2.0 | 5.0 | 0.00 | 0.00 | 0.00 | 46 | 1014.9 |
| 20260507203022 | 79 | 317 | 1.0 | 3.0 | 0.00 | 0.00 | 0.00 | 39 | 1015.0 |
| 20260507202604 | 79 | 317 | 1.0 | 3.0 | 0.00 | 0.00 | 0.00 | 39 | 1015.0 |
| 20260507202104 | 79 | 335 | 1.0 | 6.0 | 0.00 | 0.00 | 0.00 | 41 | 1015.0 |
| 20260507202025 | 78 | 331 | 1.0 | 5.0 | 0.00 | 0.00 | 0.00 | 44 | 1015.1 |
| 20260507201604 | 78 | 331 | 1.0 | 5.0 | 0.00 | 0.00 | 0.00 | 44 | 1015.1 |
| 20260507201105 | 79 | 227 | 1.0 | 5.0 | 0.00 | 0.00 | 0.00 | 42 | 1015.1 |
| 20260507201021 | 79 | 346 | 1.0 | 5.0 | 0.00 | 0.00 | 0.00 | 40 | 1015.3 |
| 20260507200604 | 79 | 346 | 1.0 | 5.0 | 0.00 | 0.00 | 0.00 | 40 | 1015.3 |
| 20260507200023 | 77 | 236 | 0.0 | 2.0 | 0.00 | 0.00 | 0.00 | 45 | 1015.6 |
| 20260507195604 | 77 | 236 | 0.0 | 2.0 | 0.00 | 0.00 | 0.00 | 45 | 1015.6 |
| 20260507195020 | 76 | 242 | 1.0 | 3.0 | 0.00 | 0.00 | 0.00 | 47 | 1015.7 |
| 20260507194604 | 76 | 242 | 1.0 | 3.0 | 0.00 | 0.00 | 0.00 | 47 | 1015.7 |
| 20260507194104 | 77 | 23 | 1.0 | 3.0 | 0.00 | 0.00 | 0.00 | 46 | 1015.7 |
| 20260507193604 | 77 | 33 | 1.0 | 3.0 | 0.00 | 0.00 | 0.00 | 47 | 1015.9 |
| 20260507193104 | 77 | 33 | 3.0 | 5.0 | 0.00 | 0.00 | 0.00 | 45 | 1015.9 |
| 20260507192604 | 76 | 349 | 1.0 | 3.0 | 0.00 | 0.00 | 0.00 | 50 | 1016.0 |
| 20260507192105 | 75 | 315 | 1.0 | 3.0 | 0.00 | 0.00 | 0.00 | 49 | 1016.0 |
| 20260507192021 | 75 | 5 | 1.0 | 2.0 | 0.00 | 0.00 | 0.00 | 48 | 1016.0 |
| 20260507191604 | 75 | 5 | 1.0 | 2.0 | 0.00 | 0.00 | 0.00 | 48 | 1016.0 |
| 20260507191104 | 74 | 355 | 0.0 | 0.0 | 0.00 | 0.00 | 0.00 | 49 | 1016.2 |
| 20260507191021 | 73 | 355 | 0.0 | 2.0 | 0.00 | 0.00 | 0.00 | 51 | 1016.2 |
| 20260507190605 | 73 | 355 | 0.0 | 2.0 | 0.00 | 0.00 | 0.00 | 51 | 1016.2 |
| 20260507185603 | 74 | 5 | 1.0 | 3.0 | 0.00 | 0.00 | 0.00 | 50 | 1016.3 |
| 20260507185020 | 72 | 316 | 1.0 | 3.0 | 0.00 | 0.00 | 0.00 | 52 | 1016.4 |
| 20260507184604 | 72 | 316 | 1.0 | 3.0 | 0.00 | 0.00 | 0.00 | 52 | 1016.4 |
| 20260507184103 | 72 | 331 | 0.0 | 0.0 | 0.00 | 0.00 | 0.00 | 56 | 1016.5 |
| 20260507184021 | 72 | 331 | 0.0 | 3.0 | 0.00 | 0.00 | 0.00 | 53 | 1016.4 |
| 20260507183604 | 72 | 331 | 0.0 | 3.0 | 0.00 | 0.00 | 0.00 | 53 | 1016.4 |
| 20260507183104 | 71 | 347 | 2.0 | 5.0 | 0.00 | 0.00 | 0.00 | 54 | 1016.5 |
| 20260507183024 | 70 | 259 | 1.0 | 3.0 | 0.00 | 0.00 | 0.00 | 55 | 1016.5 |
| 20260507182604 | 70 | 259 | 1.0 | 3.0 | 0.00 | 0.00 | 0.00 | 55 | 1016.5 |
| 20260507182104 | 71 | 258 | 1.0 | 3.0 | 0.00 | 0.00 | 0.00 | 52 | 1016.5 |
| 20260507182022 | 70 | 245 | 2.0 | 3.0 | 0.00 | 0.00 | 0.00 | 57 | 1016.6 |
| 20260507181603 | 70 | 245 | 2.0 | 3.0 | 0.00 | 0.00 | 0.00 | 57 | 1016.6 |
| 20260507181106 | 69 | 228 | 0.0 | 3.0 | 0.00 | 0.00 | 0.00 | 60 | 1016.7 |
| 20260507181021 | 70 | 340 | 2.0 | 3.0 | 0.00 | 0.00 | 0.00 | 55 | 1016.7 |
| 20260507180604 | 70 | 340 | 2.0 | 3.0 | 0.00 | 0.00 | 0.00 | 55 | 1016.7 |
| 20260507180105 | 69 | 351 | 1.0 | 3.0 | 0.00 | 0.00 | 0.00 | 55 | 1016.7 |
| 20260507180022 | 68 | 355 | 0.0 | 1.0 | 0.00 | 0.00 | 0.00 | 61 | 1016.7 |
| 20260507175604 | 68 | 355 | 0.0 | 1.0 | 0.00 | 0.00 | 0.00 | 61 | 1016.7 |
| 20260507175103 | 69 | 356 | 1.0 | 3.0 | 0.00 | 0.00 | 0.00 | 57 | 1016.8 |
| 20260507175022 | 68 | 355 | 1.0 | 3.0 | 0.00 | 0.00 | 0.00 | 58 | 1016.7 |
| 20260507174603 | 68 | 355 | 1.0 | 3.0 | 0.00 | 0.00 | 0.00 | 58 | 1016.7 |
| 20260507174020 | 68 | 6 | 0.0 | 2.0 | 0.00 | 0.00 | 0.00 | 59 | 1016.8 |
| 20260507173103 | 69 | 7 | 2.0 | 3.0 | 0.00 | 0.00 | 0.00 | 57 | 1016.8 |
| 20260507173025 | 69 | 348 | 2.0 | 5.0 | 0.00 | 0.00 | 0.00 | 58 | 1016.9 |
| 20260507172604 | 69 | 348 | 2.0 | 5.0 | 0.00 | 0.00 | 0.00 | 58 | 1016.9 |
| 20260507172104 | 68 | 308 | 1.0 | 3.0 | 0.00 | 0.00 | 0.00 | 58 | 1017.1 |
| 20260507171604 | 68 | 286 | 1.0 | 3.0 | 0.00 | 0.00 | 0.00 | 60 | 1017.1 |
| 20260507171104 | 68 | 319 | 0.0 | 2.0 | 0.00 | 0.00 | 0.00 | 62 | 1017.1 |
| 20260507171020 | 67 | 323 | 0.0 | 3.0 | 0.00 | 0.00 | 0.00 | 60 | 1017.1 |
| 20260507170604 | 67 | 323 | 0.0 | 3.0 | 0.00 | 0.00 | 0.00 | 60 | 1017.1 |
| 20260507170104 | 67 | 323 | 0.0 | 3.0 | 0.00 | 0.00 | 0.00 | 61 | 1017.3 |
| 20260507170023 | 66 | 293 | 1.0 | 3.0 | 0.00 | 0.00 | 0.00 | 61 | 1017.3 |
| 20260507165104 | 66 | 286 | 0.0 | 0.0 | 0.00 | 0.00 | 0.00 | 63 | 1017.3 |
| 20260507165023 | 66 | 294 | 0.0 | 0.0 | 0.00 | 0.00 | 0.00 | 62 | 1017.3 |
| 20260507164604 | 66 | 294 | 0.0 | 0.0 | 0.00 | 0.00 | 0.00 | 62 | 1017.3 |
| 20260507164020 | 65 | 338 | 0.0 | 0.0 | 0.00 | 0.00 | 0.00 | 64 | 1017.4 |
| 20260507163605 | 65 | 338 | 0.0 | 0.0 | 0.00 | 0.00 | 0.00 | 64 | 1017.4 |
| 20260507162103 | 64 | 296 | 0.0 | 0.0 | 0.00 | 0.00 | 0.00 | 67 | 1017.5 |
| 20260507162020 | 63 | 296 | 0.0 | 0.0 | 0.00 | 0.00 | 0.00 | 67 | 1017.4 |
| 20260507161104 | 63 | 296 | 0.0 | 0.0 | 0.00 | 0.00 | 0.00 | 67 | 1017.5 |
| 20260507161021 | 62 | 296 | 0.0 | 0.0 | 0.00 | 0.00 | 0.00 | 67 | 1017.5 |
| 20260507160106 | 62 | 292 | 0.0 | 0.0 | 0.00 | 0.00 | 0.00 | 68 | 1017.5 |
| 20260507160021 | 62 | 317 | 0.0 | 0.0 | 0.00 | 0.00 | 0.00 | 68 | 1017.6 |
| 20260507155103 | 61 | 314 | 0.0 | 0.0 | 0.00 | 0.00 | 0.00 | 70 | 1017.6 |
| 20260507155021 | 61 | 307 | 0.0 | 0.0 | 0.00 | 0.00 | 0.00 | 70 | 1017.7 |
| 20260507154105 | 61 | 319 | 0.0 | 3.0 | 0.00 | 0.00 | 0.00 | 71 | 1017.7 |
| 20260507153604 | 60 | 320 | 1.0 | 3.0 | 0.00 | 0.00 | 0.00 | 70 | 1017.7 |
| 20260507153105 | 60 | 297 | 1.0 | 2.0 | 0.00 | 0.00 | 0.00 | 73 | 1017.7 |
| 20260507153021 | 60 | 286 | 0.0 | 0.0 | 0.00 | 0.00 | 0.00 | 74 | 1017.8 |
| 20260507152104 | 59 | 287 | 0.0 | 0.0 | 0.00 | 0.00 | 0.00 | 75 | 1017.7 |
| 20260507152020 | 58 | 288 | 0.0 | 0.0 | 0.00 | 0.00 | 0.00 | 77 | 1017.9 |
| 20260507151104 | 58 | 288 | 0.0 | 0.0 | 0.00 | 0.00 | 0.00 | 78 | 1017.9 |
| 20260507151020 | 57 | 288 | 0.0 | 0.0 | 0.00 | 0.00 | 0.00 | 80 | 1017.9 |
| 20260507150604 | 57 | 288 | 0.0 | 0.0 | 0.00 | 0.00 | 0.00 | 80 | 1017.9 |
| 20260507150104 | 57 | 288 | 0.0 | 0.0 | 0.00 | 0.00 | 0.00 | 81 | 1017.8 |
| 20260507150022 | 56 | 288 | 0.0 | 0.0 | 0.00 | 0.00 | 0.00 | 84 | 1017.9 |
| 20260507145103 | 55 | 288 | 0.0 | 0.0 | 0.00 | 0.00 | 0.00 | 85 | 1017.9 |
| 20260507145021 | 54 | 286 | 0.0 | 0.0 | 0.00 | 0.00 | 0.00 | 86 | 1017.9 |
| 20260507144604 | 54 | 286 | 0.0 | 0.0 | 0.00 | 0.00 | 0.00 | 86 | 1017.9 |
| 20260507144104 | 54 | 286 | 0.0 | 0.0 | 0.00 | 0.00 | 0.00 | 87 | 1017.9 |
| 20260507144021 | 53 | 286 | 0.0 | 0.0 | 0.00 | 0.00 | 0.00 | 89 | 1017.9 |
| 20260507143604 | 53 | 286 | 0.0 | 0.0 | 0.00 | 0.00 | 0.00 | 89 | 1017.9 |
| 20260507143106 | 52 | 286 | 0.0 | 0.0 | 0.00 | 0.00 | 0.00 | 89 | 1017.8 |
| 20260507143023 | 51 | 286 | 0.0 | 0.0 | 0.00 | 0.00 | 0.00 | 90 | 1017.9 |
| 20260507142604 | 51 | 286 | 0.0 | 0.0 | 0.00 | 0.00 | 0.00 | 90 | 1017.9 |
| 20260507142103 | 51 | 286 | 0.0 | 0.0 | 0.00 | 0.00 | 0.00 | 90 | 1018.0 |
| 20260507142021 | 50 | 286 | 0.0 | 0.0 | 0.00 | 0.00 | 0.00 | 89 | 1017.9 |
| 20260507141604 | 50 | 286 | 0.0 | 0.0 | 0.00 | 0.00 | 0.00 | 89 | 1017.9 |
| 20260507141104 | 50 | 286 | 0.0 | 0.0 | 0.00 | 0.00 | 0.00 | 89 | 1017.8 |
| 20260507140605 | 49 | 286 | 0.0 | 0.0 | 0.00 | 0.00 | 0.00 | 89 | 1017.9 |
| 20260507140022 | 49 | 286 | 0.0 | 0.0 | 0.00 | 0.00 | 0.00 | 87 | 1017.9 |
| 20260507135605 | 49 | 286 | 0.0 | 0.0 | 0.00 | 0.00 | 0.00 | 87 | 1017.9 |
| 20260507135021 | 48 | 286 | 0.0 | 0.0 | 0.00 | 0.00 | 0.00 | 87 | 1017.7 |
| 20260507134605 | 48 | 286 | 0.0 | 0.0 | 0.00 | 0.00 | 0.00 | 87 | 1017.7 |
| 20260507134103 | 48 | 286 | 0.0 | 0.0 | 0.00 | 0.00 | 0.00 | 87 | 1017.6 |
| 20260507134021 | 48 | 286 | 0.0 | 0.0 | 0.00 | 0.00 | 0.00 | 87 | 1017.6 |
| 20260507133605 | 48 | 286 | 0.0 | 0.0 | 0.00 | 0.00 | 0.00 | 87 | 1017.6 |
| 20260507133104 | 48 | 286 | 0.0 | 0.0 | 0.00 | 0.00 | 0.00 | 87 | 1017.6 |
| 20260507133023 | 48 | 286 | 0.0 | 0.0 | 0.00 | 0.00 | 0.00 | 86 | 1017.6 |
| 20260507132605 | 48 | 286 | 0.0 | 0.0 | 0.00 | 0.00 | 0.00 | 86 | 1017.6 |
| 20260507132104 | 49 | 286 | 0.0 | 0.0 | 0.00 | 0.00 | 0.00 | 86 | 1017.6 |
| 20260507132020 | 49 | 286 | 0.0 | 0.0 | 0.00 | 0.00 | 0.00 | 86 | 1017.5 |
| 20260507131606 | 49 | 286 | 0.0 | 0.0 | 0.00 | 0.00 | 0.00 | 86 | 1017.5 |
| 20260507131104 | 49 | 286 | 0.0 | 0.0 | 0.00 | 0.00 | 0.00 | 86 | 1017.5 |
| 20260507131022 | 49 | 286 | 0.0 | 0.0 | 0.00 | 0.00 | 0.00 | 86 | 1017.5 |
| 20260507130104 | 49 | 286 | 0.0 | 0.0 | 0.00 | 0.00 | 0.00 | 86 | 1017.4 |
| 20260507130023 | 49 | 286 | 0.0 | 0.0 | 0.00 | 0.00 | 0.00 | 86 | 1017.5 |
| 20260507125605 | 49 | 286 | 0.0 | 0.0 | 0.00 | 0.00 | 0.00 | 86 | 1017.5 |
| 20260507125104 | 49 | 286 | 0.0 | 0.0 | 0.00 | 0.00 | 0.00 | 86 | 1017.4 |
| 20260507125020 | 49 | 286 | 0.0 | 0.0 | 0.00 | 0.00 | 0.00 | 86 | 1017.4 |
| 20260507124605 | 49 | 286 | 0.0 | 0.0 | 0.00 | 0.00 | 0.00 | 86 | 1017.4 |
| 20260507124104 | 49 | 286 | 0.0 | 0.0 | 0.00 | 0.00 | 0.00 | 86 | 1017.3 |
| 20260507123605 | 49 | 286 | 0.0 | 0.0 | 0.00 | 0.00 | 0.00 | 86 | 1017.3 |
| 20260507123104 | 49 | 286 | 0.0 | 0.0 | 0.00 | 0.00 | 0.00 | 86 | 1017.3 |
| 20260507122605 | 49 | 286 | 0.0 | 0.0 | 0.00 | 0.00 | 0.00 | 86 | 1017.3 |
| 20260507122104 | 49 | 286 | 0.0 | 0.0 | 0.00 | 0.00 | 0.00 | 86 | 1017.3 |
| 20260507122021 | 50 | 286 | 0.0 | 0.0 | 0.00 | 0.00 | 0.00 | 86 | 1017.3 |
| 20260507121104 | 50 | 286 | 0.0 | 0.0 | 0.00 | 0.00 | 0.00 | 86 | 1017.3 |
| 20260507121023 | 50 | 286 | 0.0 | 0.0 | 0.00 | 0.00 | 0.00 | 86 | 1017.3 |
| 20260507120604 | 50 | 286 | 0.0 | 0.0 | 0.00 | 0.00 | 0.00 | 86 | 1017.3 |
| 20260507120104 | 50 | 286 | 0.0 | 0.0 | 0.00 | 0.00 | 0.00 | 86 | 1017.3 |
| 20260507120022 | 50 | 286 | 0.0 | 0.0 | 0.00 | 0.00 | 0.00 | 86 | 1017.4 |
| 20260507115604 | 50 | 286 | 0.0 | 0.0 | 0.00 | 0.00 | 0.00 | 86 | 1017.4 |
| 20260507115104 | 50 | 286 | 0.0 | 0.0 | 0.00 | 0.00 | 0.00 | 86 | 1017.4 |
| 20260507115021 | 50 | 286 | 0.0 | 0.0 | 0.00 | 0.00 | 0.00 | 85 | 1017.5 |
| 20260507114605 | 50 | 286 | 0.0 | 0.0 | 0.00 | 0.00 | 0.00 | 85 | 1017.5 |
| 20260507114104 | 50 | 286 | 0.0 | 0.0 | 0.00 | 0.00 | 0.00 | 86 | 1017.5 |
| 20260507114021 | 50 | 286 | 0.0 | 0.0 | 0.00 | 0.00 | 0.00 | 85 | 1017.6 |
| 20260507113604 | 50 | 286 | 0.0 | 0.0 | 0.00 | 0.00 | 0.00 | 85 | 1017.6 |
| 20260507113104 | 50 | 286 | 0.0 | 0.0 | 0.00 | 0.00 | 0.00 | 85 | 1017.6 |
| 20260507113021 | 50 | 286 | 0.0 | 0.0 | 0.00 | 0.00 | 0.00 | 85 | 1017.6 |
| 20260507112603 | 50 | 286 | 0.0 | 0.0 | 0.00 | 0.00 | 0.00 | 85 | 1017.6 |
| 20260507112105 | 50 | 286 | 0.0 | 0.0 | 0.00 | 0.00 | 0.00 | 84 | 1017.7 |
| 20260507112021 | 50 | 286 | 0.0 | 0.0 | 0.00 | 0.00 | 0.00 | 84 | 1017.7 |
| 20260507111105 | 51 | 286 | 0.0 | 0.0 | 0.00 | 0.00 | 0.00 | 84 | 1017.7 |
| 20260507110604 | 51 | 286 | 0.0 | 0.0 | 0.00 | 0.00 | 0.00 | 83 | 1017.7 |
| 20260507110106 | 51 | 286 | 0.0 | 0.0 | 0.00 | 0.00 | 0.00 | 83 | 1017.6 |
| 20260507105603 | 51 | 286 | 0.0 | 0.0 | 0.00 | 0.00 | 0.00 | 83 | 1017.6 |
| 20260507105105 | 51 | 286 | 0.0 | 0.0 | 0.00 | 0.00 | 0.00 | 83 | 1017.5 |
| 20260507105021 | 51 | 286 | 0.0 | 0.0 | 0.00 | 0.00 | 0.00 | 83 | 1017.5 |
| 20260507104604 | 51 | 286 | 0.0 | 0.0 | 0.00 | 0.00 | 0.00 | 83 | 1017.5 |
| 20260507104103 | 51 | 286 | 0.0 | 0.0 | 0.00 | 0.00 | 0.00 | 82 | 1017.5 |
| 20260507104022 | 52 | 286 | 0.0 | 0.0 | 0.00 | 0.00 | 0.00 | 82 | 1017.5 |
| 20260507103604 | 52 | 286 | 0.0 | 0.0 | 0.00 | 0.00 | 0.00 | 82 | 1017.5 |
| 20260507103108 | 52 | 286 | 0.0 | 0.0 | 0.00 | 0.00 | 0.00 | 82 | 1017.4 |
| 20260507102604 | 52 | 286 | 0.0 | 0.0 | 0.00 | 0.00 | 0.00 | 81 | 1017.5 |
| 20260507102105 | 52 | 286 | 0.0 | 0.0 | 0.00 | 0.00 | 0.00 | 81 | 1017.4 |
| 20260507102021 | 52 | 286 | 0.0 | 0.0 | 0.00 | 0.00 | 0.00 | 81 | 1017.4 |
| 20260507101105 | 52 | 286 | 0.0 | 0.0 | 0.00 | 0.00 | 0.00 | 81 | 1017.5 |
| 20260507101021 | 53 | 286 | 0.0 | 0.0 | 0.00 | 0.00 | 0.00 | 81 | 1017.5 |
| 20260507100604 | 53 | 286 | 0.0 | 0.0 | 0.00 | 0.00 | 0.00 | 81 | 1017.5 |
| 20260507100105 | 53 | 286 | 0.0 | 0.0 | 0.00 | 0.00 | 0.00 | 81 | 1017.5 |
| 20260507100020 | 53 | 286 | 0.0 | 0.0 | 0.00 | 0.00 | 0.00 | 80 | 1017.5 |
| 20260507095606 | 53 | 286 | 0.0 | 0.0 | 0.00 | 0.00 | 0.00 | 80 | 1017.5 |
| 20260507095021 | 53 | 286 | 0.0 | 0.0 | 0.00 | 0.00 | 0.00 | 80 | 1017.6 |
| 20260507094603 | 53 | 286 | 0.0 | 0.0 | 0.00 | 0.00 | 0.00 | 80 | 1017.6 |
| 20260507094104 | 53 | 286 | 0.0 | 0.0 | 0.00 | 0.00 | 0.00 | 80 | 1017.5 |
| 20260507094023 | 53 | 286 | 0.0 | 0.0 | 0.00 | 0.00 | 0.00 | 79 | 1017.5 |
| 20260507093604 | 53 | 286 | 0.0 | 0.0 | 0.00 | 0.00 | 0.00 | 79 | 1017.5 |
| 20260507093021 | 54 | 286 | 0.0 | 0.0 | 0.00 | 0.00 | 0.00 | 79 | 1017.5 |
| 20260507092604 | 54 | 286 | 0.0 | 0.0 | 0.00 | 0.00 | 0.00 | 79 | 1017.5 |
| 20260507092105 | 54 | 286 | 0.0 | 0.0 | 0.00 | 0.00 | 0.00 | 78 | 1017.5 |
| 20260507092021 | 54 | 286 | 0.0 | 0.0 | 0.00 | 0.00 | 0.00 | 78 | 1017.5 |
| 20260507091604 | 54 | 286 | 0.0 | 0.0 | 0.00 | 0.00 | 0.00 | 78 | 1017.5 |
| 20260507091103 | 54 | 286 | 0.0 | 0.0 | 0.00 | 0.00 | 0.00 | 78 | 1017.5 |
| 20260507091021 | 54 | 286 | 0.0 | 0.0 | 0.00 | 0.00 | 0.00 | 78 | 1017.6 |
| 20260507090105 | 54 | 286 | 0.0 | 0.0 | 0.00 | 0.00 | 0.00 | 77 | 1017.6 |
| 20260507090020 | 55 | 286 | 0.0 | 0.0 | 0.00 | 0.00 | 0.00 | 77 | 1017.6 |
| 20260507085604 | 55 | 286 | 0.0 | 0.0 | 0.00 | 0.00 | 0.00 | 77 | 1017.6 |
| 20260507085021 | 55 | 286 | 0.0 | 0.0 | 0.00 | 0.00 | 0.00 | 77 | 1017.7 |
| 20260507084605 | 55 | 286 | 0.0 | 0.0 | 0.00 | 0.00 | 0.00 | 77 | 1017.7 |
| 20260507084104 | 55 | 286 | 0.0 | 0.0 | 0.00 | 0.00 | 0.00 | 77 | 1017.7 |
| 20260507084021 | 55 | 286 | 0.0 | 0.0 | 0.00 | 0.00 | 0.00 | 77 | 1017.6 |
| 20260507083605 | 55 | 286 | 0.0 | 0.0 | 0.00 | 0.00 | 0.00 | 77 | 1017.6 |
| 20260507083104 | 55 | 286 | 0.0 | 0.0 | 0.00 | 0.00 | 0.00 | 76 | 1017.6 |
| 20260507083020 | 55 | 286 | 0.0 | 0.0 | 0.00 | 0.00 | 0.00 | 76 | 1017.6 |
| 20260507082606 | 55 | 286 | 0.0 | 0.0 | 0.00 | 0.00 | 0.00 | 76 | 1017.6 |
| 20260507082104 | 55 | 286 | 0.0 | 0.0 | 0.00 | 0.00 | 0.00 | 75 | 1017.7 |
| 20260507082020 | 56 | 286 | 0.0 | 0.0 | 0.00 | 0.00 | 0.00 | 76 | 1017.6 |
| 20260507081605 | 56 | 286 | 0.0 | 0.0 | 0.00 | 0.00 | 0.00 | 76 | 1017.6 |
| 20260507081022 | 56 | 286 | 0.0 | 0.0 | 0.00 | 0.00 | 0.00 | 75 | 1017.7 |
| 20260507080604 | 56 | 286 | 0.0 | 0.0 | 0.00 | 0.00 | 0.00 | 75 | 1017.7 |
| 20260507080104 | 56 | 286 | 0.0 | 0.0 | 0.00 | 0.00 | 0.00 | 76 | 1017.7 |
| 20260507080020 | 56 | 286 | 0.0 | 0.0 | 0.00 | 0.00 | 0.00 | 76 | 1017.6 |
| 20260507075603 | 56 | 286 | 0.0 | 0.0 | 0.00 | 0.00 | 0.00 | 76 | 1017.6 |
| 20260507075021 | 57 | 288 | 0.0 | 0.0 | 0.00 | 0.00 | 0.00 | 74 | 1017.7 |
| 20260507074021 | 57 | 288 | 0.0 | 0.0 | 0.00 | 0.00 | 0.00 | 74 | 1017.8 |
| 20260507073603 | 57 | 288 | 0.0 | 0.0 | 0.00 | 0.00 | 0.00 | 74 | 1017.8 |
| 20260507073104 | 58 | 288 | 0.0 | 0.0 | 0.00 | 0.00 | 0.00 | 73 | 1017.8 |
| 20260507073021 | 58 | 288 | 0.0 | 0.0 | 0.00 | 0.00 | 0.00 | 72 | 1017.7 |
| 20260507072604 | 58 | 288 | 0.0 | 0.0 | 0.00 | 0.00 | 0.00 | 72 | 1017.7 |
| 20260507072020 | 58 | 288 | 0.0 | 0.0 | 0.00 | 0.00 | 0.00 | 71 | 1017.6 |
| 20260507071604 | 58 | 288 | 0.0 | 0.0 | 0.00 | 0.00 | 0.00 | 71 | 1017.6 |
| 20260507071104 | 58 | 288 | 0.0 | 0.0 | 0.00 | 0.00 | 0.00 | 71 | 1017.6 |
| 20260507070604 | 59 | 288 | 0.0 | 0.0 | 0.00 | 0.00 | 0.00 | 71 | 1017.6 |
| 20260507070104 | 59 | 288 | 0.0 | 0.0 | 0.00 | 0.00 | 0.00 | 70 | 1017.6 |
| 20260507070023 | 59 | 288 | 0.0 | 0.0 | 0.00 | 0.00 | 0.00 | 70 | 1017.6 |
| 20260507065604 | 59 | 288 | 0.0 | 0.0 | 0.00 | 0.00 | 0.00 | 70 | 1017.6 |
| 20260507065104 | 59 | 288 | 0.0 | 0.0 | 0.00 | 0.00 | 0.00 | 70 | 1017.6 |
| 20260507065024 | 59 | 288 | 0.0 | 0.0 | 0.00 | 0.00 | 0.00 | 70 | 1017.6 |
| 20260507064103 | 60 | 288 | 0.0 | 0.0 | 0.00 | 0.00 | 0.00 | 69 | 1017.6 |
| 20260507064022 | 60 | 288 | 0.0 | 0.0 | 0.00 | 0.00 | 0.00 | 68 | 1017.6 |
| 20260507063604 | 60 | 288 | 0.0 | 0.0 | 0.00 | 0.00 | 0.00 | 68 | 1017.6 |
| 20260507063103 | 60 | 288 | 0.0 | 0.0 | 0.00 | 0.00 | 0.00 | 68 | 1017.6 |
| 20260507063021 | 61 | 288 | 0.0 | 0.0 | 0.00 | 0.00 | 0.00 | 68 | 1017.6 |
| 20260507062604 | 61 | 288 | 0.0 | 0.0 | 0.00 | 0.00 | 0.00 | 68 | 1017.6 |
| 20260507062104 | 61 | 288 | 0.0 | 0.0 | 0.00 | 0.00 | 0.00 | 68 | 1017.5 |
| 20260507062020 | 61 | 289 | 0.0 | 0.0 | 0.00 | 0.00 | 0.00 | 67 | 1017.6 |
| 20260507061605 | 61 | 289 | 0.0 | 0.0 | 0.00 | 0.00 | 0.00 | 67 | 1017.6 |
| 20260507061104 | 61 | 336 | 0.0 | 0.0 | 0.00 | 0.00 | 0.00 | 66 | 1017.5 |
| 20260507061020 | 61 | 335 | 0.0 | 0.0 | 0.00 | 0.00 | 0.00 | 66 | 1017.4 |
| 20260507060604 | 61 | 335 | 0.0 | 0.0 | 0.00 | 0.00 | 0.00 | 66 | 1017.4 |
| 20260507060104 | 62 | 335 | 0.0 | 0.0 | 0.00 | 0.00 | 0.00 | 65 | 1017.5 |
| 20260507060021 | 62 | 334 | 0.0 | 0.0 | 0.00 | 0.00 | 0.00 | 65 | 1017.5 |
| 20260507055021 | 62 | 335 | 0.0 | 0.0 | 0.00 | 0.00 | 0.00 | 65 | 1017.5 |
| 20260507054604 | 62 | 335 | 0.0 | 0.0 | 0.00 | 0.00 | 0.00 | 65 | 1017.5 |
| 20260507054106 | 62 | 335 | 0.0 | 0.0 | 0.00 | 0.00 | 0.00 | 65 | 1017.5 |
| 20260507054022 | 63 | 335 | 0.0 | 0.0 | 0.00 | 0.00 | 0.00 | 65 | 1017.6 |
| 20260507053604 | 63 | 335 | 0.0 | 0.0 | 0.00 | 0.00 | 0.00 | 65 | 1017.6 |
| 20260507053105 | 63 | 335 | 0.0 | 0.0 | 0.00 | 0.00 | 0.00 | 64 | 1017.6 |
| 20260507053022 | 63 | 335 | 0.0 | 0.0 | 0.00 | 0.00 | 0.00 | 64 | 1017.5 |
| 20260507052105 | 64 | 335 | 0.0 | 0.0 | 0.00 | 0.00 | 0.00 | 64 | 1017.5 |
| 20260507052021 | 64 | 335 | 0.0 | 0.0 | 0.00 | 0.00 | 0.00 | 63 | 1017.6 |
| 20260507051606 | 64 | 335 | 0.0 | 0.0 | 0.00 | 0.00 | 0.00 | 63 | 1017.6 |
| 20260507051106 | 65 | 335 | 0.0 | 0.0 | 0.00 | 0.00 | 0.00 | 62 | 1017.6 |
| 20260507051022 | 65 | 335 | 0.0 | 0.0 | 0.00 | 0.00 | 0.00 | 62 | 1017.6 |
| 20260507050605 | 65 | 335 | 0.0 | 0.0 | 0.00 | 0.00 | 0.00 | 62 | 1017.6 |
| 20260507050104 | 65 | 335 | 0.0 | 0.0 | 0.00 | 0.00 | 0.00 | 62 | 1017.6 |
| 20260507045605 | 66 | 335 | 0.0 | 0.0 | 0.00 | 0.00 | 0.00 | 60 | 1017.5 |
| 20260507045104 | 66 | 334 | 0.0 | 0.0 | 0.00 | 0.00 | 0.00 | 59 | 1017.5 |
| 20260507045021 | 66 | 335 | 0.0 | 0.0 | 0.00 | 0.00 | 0.00 | 59 | 1017.4 |
| 20260507044606 | 66 | 335 | 0.0 | 0.0 | 0.00 | 0.00 | 0.00 | 59 | 1017.4 |
| 20260507043104 | 67 | 335 | 0.0 | 0.0 | 0.00 | 0.00 | 0.00 | 58 | 1017.4 |
| 20260507043021 | 67 | 335 | 0.0 | 0.0 | 0.00 | 0.00 | 0.00 | 57 | 1017.3 |
| 20260507042606 | 67 | 335 | 0.0 | 0.0 | 0.00 | 0.00 | 0.00 | 57 | 1017.3 |
| 20260507042021 | 68 | 335 | 0.0 | 0.0 | 0.00 | 0.00 | 0.00 | 56 | 1017.3 |
| 20260507041103 | 68 | 335 | 0.0 | 0.0 | 0.00 | 0.00 | 0.00 | 56 | 1017.2 |
| 20260507041023 | 69 | 335 | 0.0 | 0.0 | 0.00 | 0.00 | 0.00 | 55 | 1017.0 |
| 20260507040604 | 69 | 335 | 0.0 | 0.0 | 0.00 | 0.00 | 0.00 | 55 | 1017.0 |
| 20260507040104 | 69 | 335 | 0.0 | 0.0 | 0.00 | 0.00 | 0.00 | 54 | 1017.1 |
| 20260507040021 | 69 | 335 | 0.0 | 0.0 | 0.00 | 0.00 | 0.00 | 53 | 1017.0 |
| 20260507035105 | 69 | 335 | 0.0 | 0.0 | 0.00 | 0.00 | 0.00 | 54 | 1017.0 |
| 20260507035021 | 70 | 335 | 0.0 | 0.0 | 0.00 | 0.00 | 0.00 | 52 | 1016.9 |
| 20260507034603 | 70 | 335 | 0.0 | 0.0 | 0.00 | 0.00 | 0.00 | 52 | 1016.9 |
| 20260507034105 | 70 | 335 | 0.0 | 0.0 | 0.00 | 0.00 | 0.00 | 51 | 1016.8 |
| 20260507034023 | 71 | 335 | 0.0 | 0.0 | 0.00 | 0.00 | 0.00 | 50 | 1016.8 |
| 20260507033104 | 72 | 335 | 0.0 | 0.0 | 0.00 | 0.00 | 0.00 | 49 | 1016.7 |
| 20260507033021 | 72 | 335 | 0.0 | 0.0 | 0.00 | 0.00 | 0.00 | 47 | 1016.6 |
| 20260507032604 | 72 | 335 | 0.0 | 0.0 | 0.00 | 0.00 | 0.00 | 47 | 1016.6 |
| 20260507032104 | 73 | 335 | 0.0 | 0.0 | 0.00 | 0.00 | 0.00 | 46 | 1016.5 |
| 20260507032022 | 73 | 334 | 0.0 | 0.0 | 0.00 | 0.00 | 0.00 | 45 | 1016.5 |
| 20260507031604 | 73 | 334 | 0.0 | 0.0 | 0.00 | 0.00 | 0.00 | 45 | 1016.5 |
| 20260507031104 | 74 | 335 | 0.0 | 2.0 | 0.00 | 0.00 | 0.00 | 44 | 1016.5 |
| 20260507030603 | 74 | 329 | 0.0 | 0.0 | 0.00 | 0.00 | 0.00 | 44 | 1016.5 |
| 20260507030106 | 74 | 327 | 0.0 | 2.0 | 0.00 | 0.00 | 0.00 | 44 | 1016.4 |
| 20260507030022 | 75 | 290 | 1.0 | 3.0 | 0.00 | 0.00 | 0.00 | 43 | 1016.3 |
| 20260507025603 | 75 | 290 | 1.0 | 3.0 | 0.00 | 0.00 | 0.00 | 43 | 1016.3 |
| 20260507025105 | 75 | 5 | 1.0 | 5.0 | 0.00 | 0.00 | 0.00 | 43 | 1016.2 |
| 20260507025021 | 75 | 338 | 1.0 | 5.0 | 0.00 | 0.00 | 0.00 | 43 | 1016.1 |
| 20260507024603 | 75 | 338 | 1.0 | 5.0 | 0.00 | 0.00 | 0.00 | 43 | 1016.1 |
| 20260507024104 | 76 | 10 | 1.0 | 6.0 | 0.00 | 0.00 | 0.00 | 42 | 1016.1 |
| 20260507024022 | 76 | 337 | 3.0 | 8.0 | 0.00 | 0.00 | 0.00 | 42 | 1016.0 |
| 20260507023604 | 76 | 337 | 3.0 | 8.0 | 0.00 | 0.00 | 0.00 | 42 | 1016.0 |
| 20260507023104 | 76 | 347 | 2.0 | 6.0 | 0.00 | 0.00 | 0.00 | 42 | 1015.9 |
| 20260507023024 | 77 | 355 | 2.0 | 5.0 | 0.00 | 0.00 | 0.00 | 42 | 1015.9 |
| 20260507022603 | 77 | 355 | 2.0 | 5.0 | 0.00 | 0.00 | 0.00 | 42 | 1015.9 |
| 20260507022104 | 77 | 1 | 3.0 | 9.0 | 0.00 | 0.00 | 0.00 | 41 | 1015.7 |
| 20260507022021 | 77 | 4 | 2.0 | 12.0 | 0.00 | 0.00 | 0.00 | 41 | 1015.7 |
| 20260507021604 | 77 | 4 | 2.0 | 12.0 | 0.00 | 0.00 | 0.00 | 41 | 1015.7 |
| 20260507021105 | 77 | 37 | 3.0 | 9.0 | 0.00 | 0.00 | 0.00 | 41 | 1015.6 |
| 20260507020103 | 78 | 357 | 3.0 | 7.0 | 0.00 | 0.00 | 0.00 | 41 | 1015.5 |
| 20260507020023 | 78 | 342 | 2.0 | 12.0 | 0.00 | 0.00 | 0.00 | 41 | 1015.4 |
| 20260507015604 | 78 | 342 | 2.0 | 12.0 | 0.00 | 0.00 | 0.00 | 41 | 1015.4 |
| 20260507015107 | 79 | 347 | 6.0 | 13.0 | 0.00 | 0.00 | 0.00 | 39 | 1015.4 |
| 20260507015021 | 79 | 359 | 4.0 | 12.0 | 0.00 | 0.00 | 0.00 | 39 | 1015.3 |
| 20260507014604 | 79 | 359 | 4.0 | 12.0 | 0.00 | 0.00 | 0.00 | 39 | 1015.3 |
| 20260507014105 | 80 | 350 | 6.0 | 12.0 | 0.00 | 0.00 | 0.00 | 39 | 1015.4 |
| 20260507014021 | 81 | 5 | 3.0 | 10.0 | 0.00 | 0.00 | 0.00 | 38 | 1015.2 |
| 20260507013604 | 81 | 5 | 3.0 | 10.0 | 0.00 | 0.00 | 0.00 | 38 | 1015.2 |
| 20260507013104 | 81 | 349 | 3.0 | 12.0 | 0.00 | 0.00 | 0.00 | 37 | 1015.3 |
| 20260507012605 | 81 | 334 | 5.0 | 10.0 | 0.00 | 0.00 | 0.00 | 37 | 1015.2 |
| 20260507012104 | 81 | 328 | 2.0 | 5.0 | 0.00 | 0.00 | 0.00 | 37 | 1015.2 |
| 20260507012023 | 81 | 262 | 1.0 | 8.0 | 0.00 | 0.00 | 0.00 | 37 | 1015.1 |
| 20260507011603 | 81 | 262 | 1.0 | 8.0 | 0.00 | 0.00 | 0.00 | 37 | 1015.1 |
| 20260507010603 | 82 | 326 | 2.0 | 9.0 | 0.00 | 0.00 | 0.00 | 37 | 1015.1 |
| 20260507010104 | 82 | 357 | 1.0 | 5.0 | 0.00 | 0.00 | 0.00 | 36 | 1015.1 |
| 20260507005604 | 82 | 359 | 1.0 | 6.0 | 0.00 | 0.00 | 0.00 | 36 | 1015.1 |
| 20260507005104 | 82 | 10 | 2.0 | 9.0 | 0.00 | 0.00 | 0.00 | 36 | 1015.1 |
| 20260507005021 | 82 | 345 | 3.0 | 8.0 | 0.00 | 0.00 | 0.00 | 35 | 1014.9 |
| 20260507004605 | 82 | 345 | 3.0 | 8.0 | 0.00 | 0.00 | 0.00 | 35 | 1014.9 |
| 20260507004104 | 83 | 305 | 3.0 | 9.0 | 0.00 | 0.00 | 0.00 | 35 | 1014.9 |
| 20260507003104 | 83 | 350 | 3.0 | 9.0 | 0.00 | 0.00 | 0.00 | 34 | 1014.9 |
| 20260507003023 | 83 | 224 | 1.0 | 8.0 | 0.00 | 0.00 | 0.00 | 35 | 1014.9 |
| 20260507002603 | 83 | 224 | 1.0 | 8.0 | 0.00 | 0.00 | 0.00 | 35 | 1014.9 |
| 20260507002022 | 83 | 233 | 2.0 | 7.0 | 0.00 | 0.00 | 0.00 | 33 | 1014.9 |
| 20260507001604 | 83 | 233 | 2.0 | 7.0 | 0.00 | 0.00 | 0.00 | 33 | 1014.9 |
| 20260507001103 | 83 | 260 | 2.0 | 12.0 | 0.00 | 0.00 | 0.00 | 35 | 1014.9 |
| 20260507001022 | 83 | 347 | 6.0 | 13.0 | 0.00 | 0.00 | 0.00 | 33 | 1014.9 |
| 20260507000604 | 83 | 347 | 6.0 | 13.0 | 0.00 | 0.00 | 0.00 | 33 | 1014.9 |
| 20260506235603 | 83 | 353 | 3.0 | 8.0 | 0.00 | 0.00 | 0.00 | 32 | 1014.9 |
| 20260506235103 | 83 | 341 | 6.0 | 10.0 | 0.00 | 0.00 | 0.00 | 32 | 1014.9 |
| 20260506235021 | 83 | 352 | 4.0 | 10.0 | 0.00 | 0.00 | 0.00 | 31 | 1014.9 |
| 20260506234604 | 83 | 352 | 4.0 | 10.0 | 0.00 | 0.00 | 0.00 | 31 | 1014.9 |
| 20260506234104 | 84 | 353 | 2.0 | 8.0 | 0.00 | 0.00 | 0.00 | 32 | 1014.9 |
| 20260506234023 | 84 | 1 | 5.0 | 15.0 | 0.00 | 0.00 | 0.00 | 32 | 1014.9 |
| 20260506233604 | 84 | 1 | 5.0 | 15.0 | 0.00 | 0.00 | 0.00 | 32 | 1014.9 |
| 20260506233023 | 84 | 358 | 6.0 | 15.0 | 0.00 | 0.00 | 0.00 | 32 | 1014.9 |
| 20260506232604 | 84 | 358 | 6.0 | 15.0 | 0.00 | 0.00 | 0.00 | 32 | 1014.9 |
| 20260506232103 | 84 | 356 | 5.0 | 14.0 | 0.00 | 0.00 | 0.00 | 32 | 1015.0 |
| 20260506231026 | 83 | 354 | 3.0 | 10.0 | 0.00 | 0.00 | 0.00 | 32 | 1015.0 |
| 20260506230604 | 83 | 354 | 3.0 | 10.0 | 0.00 | 0.00 | 0.00 | 32 | 1015.0 |
| 20260506230105 | 83 | 0 | 2.0 | 6.0 | 0.00 | 0.00 | 0.00 | 32 | 1015.1 |
| 20260506230023 | 83 | 354 | 2.0 | 6.0 | 0.00 | 0.00 | 0.00 | 33 | 1015.2 |
| 20260506225106 | 83 | 317 | 3.0 | 8.0 | 0.00 | 0.00 | 0.00 | 33 | 1015.2 |
| 20260506225021 | 83 | 0 | 2.0 | 8.0 | 0.00 | 0.00 | 0.00 | 34 | 1015.2 |
| 20260506224604 | 83 | 0 | 2.0 | 8.0 | 0.00 | 0.00 | 0.00 | 34 | 1015.2 |
| 20260506224103 | 84 | 355 | 4.0 | 6.0 | 0.00 | 0.00 | 0.00 | 34 | 1015.3 |
| 20260506224021 | 84 | 350 | 3.0 | 8.0 | 0.00 | 0.00 | 0.00 | 36 | 1015.4 |
| 20260506223604 | 84 | 350 | 3.0 | 8.0 | 0.00 | 0.00 | 0.00 | 36 | 1015.4 |
| 20260506223105 | 84 | 30 | 0.0 | 3.0 | 0.00 | 0.00 | 0.00 | 35 | 1015.5 |
| 20260506223023 | 84 | 34 | 1.0 | 6.0 | 0.00 | 0.00 | 0.00 | 36 | 1015.5 |
| 20260506222603 | 84 | 34 | 1.0 | 6.0 | 0.00 | 0.00 | 0.00 | 36 | 1015.5 |
| 20260506222104 | 84 | 349 | 5.0 | 10.0 | 0.00 | 0.00 | 0.00 | 35 | 1015.6 |
| 20260506222021 | 83 | 271 | 0.0 | 1.0 | 0.00 | 0.00 | 0.00 | 39 | 1015.6 |
| 20260506221603 | 83 | 271 | 0.0 | 1.0 | 0.00 | 0.00 | 0.00 | 39 | 1015.6 |
| 20260506221116 | 82 | 259 | 0.0 | 5.0 | 0.00 | 0.00 | 0.00 | 39 | 1015.6 |
| 20260506220606 | 82 | 326 | 2.0 | 8.0 | 0.00 | 0.00 | 0.00 | 39 | 1015.7 |